Dewpoint
20 18 16 14 13 14 12 13 14 13 14 15 14 16 17 19 22 21 21 21 21 21 22 21 22 21 22 20 20 20 20 21 21 20 20 20 20 19 20 19 19 19
17 16 16 14 15 16 13 14 13 13 14 14 15 17 20 21 22 21 21 21 21 21 21 21 21 21 20 20 20 19 20 19 20 22 19 19 19 19 19 19 19 19
15 14 13 11 12 13 13 14 14 14 14 15 17 19 21 22 21 21 21 20 20 20 20 20 20 20 19 19 19 19 18 18 19 19 19 18 18 18 18 18 17 17
13 13 12 11 13 13 14 15 15 16 17 18 18 20 21 22 21 21 21 21 19 19 20 19 19 19 19 19 18 18 18 18 19 19 19 19 18 17 17 18 19 18
13 13 13 13 14 15 15 15 15 16 17 17 19 21 21 21 20 20 20 19 19 19 19 19 19 19 18 17 16 16 17 18 19 18 17 17 18 17 17 15 14 14
15 14 14 14 15 15 15 15 15 17 17 18 19 20 20 20 19 19 19 19 18 18 18 18 18 18 16 15 15 15 15 16 16 15 14 15 16 18 15 13 13 13
15 15 14 15 16 16 15 15 16 18 18 17 19 19 19 18 18 18 18 18 18 18 17 17 17 16 14 13 13 12 12 13 13 12 11 12 15 15 14 11 11 12
15 15 15 16 15 15 15 16 17 18 18 19 18 18 18 17 17 17 17 17 17 16 15 15 16 15 13 11 10 10 10 10 9 9 9 10 11 12 11 10 10 11
16 15 16 15 14 15 14 16 17 17 18 17 16 17 17 16 16 16 16 16 15 15 14 13 14 13 11 10 9 8 8 7 8 8 8 8 9 10 10 10 9 10
15 15 14 14 13 14 14 16 17 17 18 16 16 16 15 16 16 16 15 14 14 13 12 11 11 11 9 9 8 8 7 6 6 6 7 7 8 9 10 9 9 9
15 14 13 13 12 13 13 15 16 16 17 15 15 15 15 15 16 15 13 13 12 12 11 10 9 8 7 7 7 8 6 5 5 5 6 6 7 8 13 9 10 9
15 14 13 12 12 13 13 15 16 16 16 15 15 15 15 15 14 14 12 11 10 10 10 9 8 7 6 5 5 5 5 4 4 4 5 6 7 8 11 10 10 10
14 14 13 12 12 12 13 15 15 15 16 15 15 14 14 14 13 13 13 10 9 9 8 7 6 5 4 4 3 3 3 3 4 4 5 6 8 9 12 11 11 11
15 14 13 13 12 12 14 15 15 16 16 15 16 14 14 13 13 12 12 9 8 7 6 6 4 4 3 3 3 2 3 3 4 4 5 7 9 10 12 11 11 11
16 15 14 14 14 14 15 15 16 16 16 16 16 15 14 13 13 12 10 8 7 6 5 5 3 3 3 2 2 2 2 3 4 5 5 7 10 12 13 13 13 13
16 17 15 15 15 14 15 16 16 17 17 17 17 16 14 14 12 11 10 8 7 6 5 4 3 2 11 14 13 5 3 4 5 7 8 9 11 13 14 14 14 14
17 17 17 16 16 16 19 18 18 19 19 19 18 17 15 15 12 10 9 8 7 6 5 4 4 4 16 20 20 17 7 6 7 9 10 11 13 13 14 14 15 15
18 19 19 18 19 21 21 21 21 21 21 21 20 18 17 15 12 11 9 8 7 7 6 5 4 14 19 23 23 22 18 9 12 12 12 12 13 14 14 14 15 15
19 20 20 22 21 21 22 22 22 21 21 20 20 19 17 15 12 12 10 9 8 7 7 7 5 16 21 24 25 25 23 15 13 13 13 13 13 14 14 14 14 14
20 22 22 22 22 23 22 22 21 21 21 20 20 19 18 16 15 14 14 10 9 8 8 7 6 16 22 25 25 26 26 21 12 13 13 13 14 14 14 14 14 13
21 22 22 22 23 23 22 22 21 21 21 21 20 19 18 17 16 16 16 15 14 12 9 8 7 17 22 25 27 26 27 27 13 12 12 13 13 13 14 14 14 14
21 22 23 23 22 22 22 21 21 21 21 20 19 19 18 17 17 17 17 17 16 15 13 12 8 18 22 24 26 28 27 26 17 13 12 12 12 13 14 14 14 14
21 22 23 23 23 22 22 22 21 21 21 20 19 19 18 17 17 17 17 17 16 15 13 13 12 17 22 24 26 28 28 25 19 16 14 13 12 13 14 14 14 14
22 24 24 24 23 23 22 22 21 22 21 20 19 19 18 18 17 16 16 16 16 15 15 13 14 15 21 24 26 28 28 24 21 18 17 16 15 15 14 14 14 17
24 24 24 24 23 23 23 22 22 22 21 20 19 19 19 18 16 16 16 15 15 16 17 14 13 14 19 23 25 27 27 24 21 18 18 17 16 15 15 14 14 16
24 24 25 24 24 24 23 23 22 21 21 19 19 18 18 17 15 15 16 15 13 12 12 13 11 11 13 21 24 26 28 25 20 19 18 17 16 16 15 13 13 13